Theta_e
291 286 281 283 285 285 283 281 279 282 287 285 283 283 286 288 287 287 288 287 288 289 291 290 291 291 290 289 289 290 291 292 293 292 291 292 293 298 303 305 305 306 307 311
286 282 286 289 288 286 284 281 280 282 287 285 284 285 287 287 287 288 288 288 288 288 289 291 290 289 288 288 288 290 291 292 293 292 292 292 293 299 301 303 303 305 306 311
283 285 290 288 285 284 282 280 279 279 284 285 283 277 281 286 287 288 289 289 289 288 289 289 289 288 286 286 287 290 291 292 293 293 293 293 296 300 300 300 301 303 306 309
284 288 287 284 285 284 280 285 283 283 280 276 281 274 277 282 285 287 288 288 288 288 289 290 288 286 286 287 287 290 292 293 294 294 291 290 293 294 296 297 300 302 305 307
283 283 283 283 284 286 282 286 283 282 280 278 279 274 278 282 283 285 286 288 287 288 289 289 289 289 287 287 286 289 291 292 292 292 292 290 289 294 293 296 299 301 304 305
284 288 286 284 286 286 287 284 283 282 279 269 279 273 275 279 281 283 285 286 288 288 288 289 289 289 286 286 286 288 289 290 292 291 290 290 290 290 292 296 297 300 301 303
283 283 285 287 283 286 284 279 270 272 271 271 278 274 277 280 282 283 285 286 287 288 288 288 287 287 286 285 285 288 288 289 290 290 290 290 291 291 294 295 296 298 299 300
276 277 282 286 283 282 281 278 272 268 271 272 276 275 279 282 285 287 287 288 288 287 288 288 288 287 286 285 285 286 288 290 290 290 291 292 292 293 294 295 296 298 299 300
276 277 284 286 286 284 281 277 281 272 268 272 275 278 282 284 284 285 286 287 287 287 288 288 287 287 286 284 285 285 288 289 290 291 291 291 292 291 291 295 296 297 298 300
280 276 281 283 286 285 282 283 276 274 269 270 273 275 278 280 281 284 286 286 285 285 286 287 287 286 286 284 284 285 287 289 289 290 291 292 291 291 292 293 295 296 297 300
280 280 279 280 279 279 279 277 278 279 276 271 269 276 282 282 282 283 285 286 284 284 284 285 286 286 286 284 284 284 286 288 289 291 292 291 291 291 291 291 293 295 297 299
282 280 274 276 280 283 282 281 279 274 272 272 273 276 284 284 284 285 285 286 285 284 284 284 285 285 285 285 283 284 285 287 288 290 291 292 291 292 292 292 293 294 295 298
283 277 272 277 279 281 279 281 281 279 277 271 273 278 286 283 283 284 285 286 286 285 284 285 284 285 285 284 283 283 284 285 288 289 291 291 291 291 291 291 292 294 295 296
288 277 280 281 282 280 275 278 281 278 270 274 276 280 285 283 282 283 282 283 283 284 284 284 283 284 284 283 282 283 284 285 287 288 290 290 290 290 291 291 292 292 294 294
284 278 273 274 279 280 280 278 278 276 278 277 284 278 286 285 284 286 285 286 282 282 281 281 279 279 280 281 281 282 283 284 286 287 289 290 291 291 291 291 291 292 292 293
283 277 275 276 275 277 276 279 279 279 276 277 279 280 288 290 287 283 284 284 283 283 281 281 281 281 281 280 281 282 279 283 286 285 286 289 290 290 290 290 290 291 291 292
281 279 276 277 272 273 278 279 280 279 280 281 277 287 287 285 286 286 287 285 283 284 285 283 282 282 282 281 283 281 282 283 285 285 285 284 287 287 288 288 290 289 289 290
282 281 279 281 281 277 285 284 283 282 282 283 283 285 287 287 287 288 287 287 286 285 285 284 284 283 281 281 280 282 282 283 284 285 285 285 285 286 286 286 288 288 289 288
285 284 280 281 274 283 288 283 282 283 287 286 285 288 287 286 286 285 288 289 289 286 285 286 285 284 282 281 282 282 282 282 283 284 284 284 284 284 284 284 285 285 286 286
283 287 287 281 279 275 286 285 285 283 282 287 286 287 285 284 283 284 285 286 287 288 287 288 286 283 282 281 281 282 282 282 282 283 284 283 283 284 283 283 283 283 283 284
279 280 284 283 282 283 288 285 285 280 286 285 287 287 286 284 287 286 286 285 285 287 288 287 285 284 283 282 282 282 281 282 283 283 283 282 282 283 283 282 282 282 282 282
278 279 279 281 281 279 286 283 285 290 283 284 284 284 285 287 286 285 285 286 285 286 286 286 284 283 282 281 282 281 281 282 280 280 279 278 277 281 281 279 277 278 278 277
280 282 279 283 284 288 286 290 289 287 287 285 285 286 286 286 287 287 286 285 286 286 285 285 284 280 277 279 280 279 278 277 275 276 275 274 274 277 278 277 276 276 275 276
280 283 279 281 286 286 287 288 286 287 287 286 286 286 286 286 286 287 287 286 286 284 282 280 279 278 279 277 279 277 276 277 277 277 275 275 276 274 272 277 278 277 276 276
281 283 278 278 284 284 287 287 290 289 288 287 286 287 287 286 287 287 286 286 286 285 281 279 281 281 281 278 279 276 274 276 277 277 277 277 277 276 276 277 277 278 277 278
281 281 283 282 288 290 292 289 289 288 289 288 287 285 286 286 286 285 285 284 284 283 281 281 281 278 281 280 280 279 278 277 278 277 277 279 278 276 276 276 275 282 284 284
Wind_Speed
4 6 2 3 1 2 3 1 3 3 1 4 7 10 13 9 5 7 8 8 6 6 5 4 5 5 4 1 2 3 4 5 3 3 4 3 3 4 4 4 8 9 8 11
6 2 2 1 0 2 3 1 3 6 2 3 7 17 10 5 6 7 8 7 6 4 4 5 5 5 1 1 2 3 4 4 3 2 2 2 3 3 3 5 8 9 10 10
4 1 3 0 3 3 2 2 1 4 8 4 7 8 5 3 3 3 5 4 3 5 7 4 5 5 3 2 3 3 3 5 3 4 3 3 3 2 2 5 7 8 10 9
4 2 1 1 2 1 2 2 0 3 5 3 3 6 4 3 5 5 8 6 6 6 5 3 5 5 5 4 3 3 4 4 4 5 4 3 2 3 2 6 6 8 10 10
2 0 2 2 1 3 2 0 0 1 1 3 3 3 8 3 3 8 8 7 6 6 7 6 5 4 3 3 1 1 2 3 3 4 4 3 3 2 3 4 6 8 7 9
2 1 2 1 0 1 2 1 3 3 2 4 2 4 7 2 4 4 4 5 6 6 6 6 1 4 3 1 1 1 2 2 3 4 5 5 5 5 4 6 6 5 5 7
5 2 1 2 1 1 2 4 5 8 6 6 2 3 10 4 4 4 6 6 6 5 4 5 4 3 4 2 2 2 2 2 3 4 4 5 6 5 4 5 5 7 5 4
5 6 1 4 1 2 2 3 7 5 2 6 3 6 5 5 3 3 5 4 3 3 3 6 5 4 4 3 2 2 3 2 4 4 5 4 5 3 4 4 5 4 3 3
5 3 2 3 2 1 1 1 1 7 1 3 4 8 6 4 6 6 6 5 4 3 4 6 3 4 5 3 1 3 3 2 3 3 3 4 3 4 3 6 5 4 6 5
5 3 2 1 1 1 0 2 3 4 1 5 6 6 6 5 7 7 7 8 5 3 4 4 3 4 4 3 2 1 3 3 4 3 3 4 5 4 5 4 5 7 7 6
5 5 3 2 4 5 1 1 2 2 3 5 2 8 8 7 6 9 9 8 7 6 5 3 3 3 4 3 2 1 2 4 4 4 5 4 3 4 4 4 4 3 4 6
6 6 3 6 2 1 2 2 4 5 5 1 2 11 3 7 5 5 8 8 5 5 5 4 4 4 3 3 2 1 2 2 3 3 3 4 3 3 3 4 5 5 5 4
9 1 3 6 4 4 3 4 3 4 3 6 5 9 2 5 7 7 8 8 7 5 5 4 3 5 4 3 2 1 2 2 3 3 3 3 4 4 4 4 5 4 5 4
5 4 7 8 5 5 3 4 5 5 4 4 9 12 12 8 7 9 8 8 8 8 7 6 5 6 5 4 3 3 2 1 3 3 3 3 4 4 3 3 3 3 3 3
3 5 3 3 2 3 5 5 8 9 7 8 11 11 19 7 8 9 8 6 5 9 7 7 5 5 4 5 3 2 3 2 2 4 4 4 4 4 4 4 4 4 4 4
2 3 3 3 3 2 6 8 10 12 2 12 11 24 22 21 8 5 9 7 8 9 9 8 8 7 6 6 7 4 3 4 3 3 3 3 4 5 5 5 5 5 5 5
8 7 4 4 1 3 9 11 16 6 6 9 9 21 7 6 6 6 7 7 8 8 8 9 11 11 8 8 7 7 6 3 3 4 2 3 4 4 5 5 6 6 5 5
8 6 2 3 1 4 9 4 6 13 8 17 11 13 10 8 6 8 7 7 7 8 8 8 8 7 7 7 5 6 6 6 4 3 3 2 3 3 4 5 5 6 5 5
1 6 3 4 4 6 12 3 7 9 10 18 22 18 10 5 6 7 7 9 9 8 8 7 7 6 7 8 8 8 7 6 6 5 4 4 3 3 2 3 4 4 4 5
3 2 4 4 4 8 9 4 5 3 9 3 10 10 5 3 3 5 5 4 7 6 6 8 8 6 8 8 8 8 8 7 7 6 6 5 4 4 4 3 3 2 2 3
4 2 8 8 5 7 8 6 6 5 8 4 5 5 6 5 6 2 5 5 1 6 7 7 7 9 9 9 8 7 7 9 7 6 6 6 5 5 5 3 1 3 4 3
11 12 5 3 5 11 10 5 10 7 3 5 4 3 4 7 8 4 4 3 3 6 6 7 7 7 7 8 9 7 9 5 6 6 5 6 5 4 3 5 2 1 3 4
6 10 11 14 11 4 12 6 8 4 5 6 4 5 3 3 3 5 4 1 3 6 5 5 7 6 3 7 8 9 7 6 5 5 5 4 3 3 4 5 3 2 3 3
5 5 4 4 7 11 9 7 4 6 7 4 4 3 4 3 3 4 3 3 3 4 5 4 6 5 7 6 6 4 6 7 8 8 7 5 5 4 3 2 3 3 3 3
7 12 8 4 7 6 8 10 11 9 9 6 4 6 7 4 6 4 3 4 5 5 3 4 7 7 8 7 7 5 5 7 6 6 6 6 5 6 5 4 5 5 4 5
6 9 9 8 10 6 7 3 7 11 11 7 8 4 4 6 7 4 5 4 3 4 4 4 6 5 7 7 8 7 7 8 6 5 4 5 5 5 4 4 4 11 12 11
Wind_Direction
12 69 129 185 203 149 142 219 264 263 54 333 242 270 272 266 255 259 257 267 276 319 299 177 196 204 187 106 58 354 350 349 353 349 336 334 327 305 307 320 316 299 292 282
24 102 212 236 325 114 78 255 274 281 253 351 302 291 277 236 231 205 230 250 263 281 255 242 208 207 99 93 331 342 358 348 347 355 302 290 293 294 292 317 302 297 302 283
119 81 319 350 40 84 44 219 228 253 323 253 320 288 352 25 234 211 243 240 274 272 271 238 209 199 145 221 280 350 331 342 355 357 336 325 312 313 326 324 310 314 303 302
85 287 60 26 54 19 283 159 293 313 13 279 37 279 324 341 288 272 269 274 269 273 274 244 193 177 195 218 259 20 340 357 2 7 2 10 339 334 305 302 298 307 300 356
208 1 55 94 62 350 281 321 238 0 320 346 337 60 268 338 297 274 272 253 257 258 253 264 228 187 181 174 250 36 344 2 16 13 347 348 331 308 290 294 325 319 316 1
103 286 35 104 274 105 321 312 41 56 44 28 278 109 288 215 217 289 280 251 251 245 256 274 209 140 143 162 312 341 11 6 33 17 348 338 327 348 341 341 351 339 336 12
349 340 358 38 22 33 80 46 338 354 11 215 11 34 245 249 247 228 235 240 222 216 245 274 236 202 172 208 288 326 42 17 27 30 346 335 335 349 342 351 346 352 339 13
137 319 17 2 26 174 73 130 151 228 282 275 0 238 235 217 186 200 202 203 184 235 240 248 235 181 180 183 299 333 47 20 23 25 352 349 344 340 352 349 348 347 351 4
125 285 323 47 350 36 252 42 160 102 32 28 253 285 302 216 243 230 230 214 227 194 189 237 208 179 155 176 247 314 2 39 51 33 359 355 4 353 353 2 348 340 351 2
194 75 281 324 351 346 310 142 49 3 357 302 293 284 246 250 233 242 251 241 221 197 184 207 210 186 151 163 134 348 344 25 4 2 86 14 349 353 2 36 12 354 342 343
136 107 281 33 196 180 44 36 74 118 131 180 287 274 207 215 204 205 232 236 224 228 224 209 212 190 156 136 124 111 21 355 24 2 351 37 9 0 2 7 10 354 324 353
190 133 164 205 224 7 300 222 158 122 270 290 152 273 205 222 214 203 226 238 222 205 220 204 211 180 178 162 145 131 85 30 19 11 356 3 16 2 33 1 351 352 359 349
188 319 38 347 3 7 230 206 153 115 86 213 145 264 344 276 263 245 234 243 246 203 202 198 188 209 190 197 161 165 86 42 30 18 356 12 11 9 11 13 7 5 349 342
105 103 163 191 192 127 164 216 186 141 124 205 228 274 285 271 256 262 250 253 245 227 208 211 205 218 179 171 190 154 114 71 69 47 4 18 10 9 1 11 40 29 358 4
145 171 137 258 206 187 212 180 185 192 203 184 267 236 264 256 239 244 247 249 219 243 206 209 206 210 193 158 171 168 134 71 31 47 27 9 14 9 10 21 21 43 36 23
152 172 115 310 12 89 267 224 207 219 212 267 282 284 269 275 255 265 263 253 241 242 226 203 200 195 194 203 175 180 209 154 114 82 36 9 20 23 14 15 23 29 37 41
150 142 121 245 352 13 301 221 198 192 200 186 202 243 278 258 239 259 272 254 235 227 218 209 194 193 189 194 180 179 182 154 128 125 81 45 22 31 28 15 24 31 36 43
148 120 89 155 76 213 239 167 178 209 224 216 259 265 244 253 260 262 234 239 240 217 206 206 191 182 185 177 166 156 163 160 162 163 145 127 72 55 37 36 37 31 21 35
12 123 138 164 202 314 312 193 162 179 272 210 224 249 269 294 299 294 247 216 222 208 196 196 181 165 160 170 166 152 161 168 167 182 189 177 158 122 78 63 57 34 42 34
64 57 139 158 208 216 229 185 175 199 285 202 185 234 241 126 338 270 333 317 225 205 176 173 167 150 155 173 157 155 166 172 192 191 189 178 175 166 155 138 100 74 65 90
125 62 201 194 227 277 250 159 149 100 240 151 184 228 167 198 213 262 334 343 285 180 174 148 157 168 178 156 155 171 171 195 195 173 166 170 181 180 176 157 135 138 118 96
158 161 179 119 221 259 159 74 177 202 185 155 170 183 203 243 279 296 306 3 109 128 135 158 163 171 164 160 162 173 200 200 165 160 167 170 175 176 163 153 136 107 131 132
203 180 176 186 202 236 206 214 212 159 158 185 172 194 198 242 238 261 271 215 170 173 161 165 173 163 179 174 177 177 210 163 152 150 179 187 165 166 163 156 161 143 155 151
260 174 175 107 222 236 230 250 242 212 226 217 181 202 191 232 264 268 275 243 193 185 180 159 144 176 199 202 200 210 172 160 159 174 182 180 182 187 190 182 174 173 188 193
193 148 159 264 276 275 250 227 233 222 232 234 203 199 215 223 256 244 255 229 215 205 177 169 180 192 212 185 208 193 182 155 176 183 181 185 185 193 195 213 193 205 211 179
186 167 187 210 203 191 247 212 190 209 222 197 198 235 236 203 232 212 246 250 213 194 174 190 209 196 215 194 200 193 180 180 175 188 190 197 192 192 199 201 249 244 240 230